FW9021 Weather Reports


Display with metric or nautical units.
time (UTC)temp
F
wind
direction
speed
MPH
gust
MPH
rain 1hr
in
rain 24hr
in
rain mn
in
humidity
%
barometer
mb
20260904071607 74 0 0.0 2.0 0.00 0.00 0.00 83 1017.5
20260904071040 74 338 0.0 3.0 0.00 0.00 0.00 83 1017.5
20260904070541 74 39 1.0 3.0 0.00 0.00 0.00 83 1017.6
20260904070059 74 39 1.0 3.0 0.00 0.00 0.00 83 1017.6
20260904065541 74 39 1.0 3.0 0.00 0.00 0.00 83 1017.6
20260904065040 74 21 1.0 3.0 0.00 0.00 0.00 83 1017.8
20260904064553 74 53 1.0 3.0 0.00 0.00 0.00 83 1017.7
20260904064040 74 53 1.0 3.0 0.00 0.00 0.00 83 1017.8
20260904063540 74 53 1.0 2.0 0.00 0.00 0.00 83 1017.8
20260904063100 74 53 1.0 2.0 0.00 0.00 0.00 84 1017.8
20260904062539 74 53 0.0 2.0 0.00 0.00 0.00 84 1017.9
20260904062039 74 53 1.0 2.0 0.00 0.00 0.00 84 1017.9
20260904061558 74 50 0.0 2.0 0.00 0.00 0.00 83 1018.0
20260904061043 75 0 0.0 3.0 0.00 0.00 0.00 84 1018.0
20260904060541 75 0 0.0 3.0 0.00 0.00 0.00 83 1017.9
20260904060100 75 35 2.0 3.0 0.00 0.00 0.00 83 1017.9
20260904055540 75 43 1.0 3.0 0.00 0.00 0.00 84 1018.0
20260904055040 75 5 1.0 2.0 0.00 0.00 0.00 84 1017.9
20260904054556 75 0 0.0 2.0 0.00 0.00 0.00 84 1018.0
20260904054040 75 0 0.0 2.0 0.00 0.00 0.00 84 1018.1
20260904053540 75 5 1.0 3.0 0.00 0.00 0.00 83 1018.0
20260904053050 75 5 0.0 3.0 0.00 0.00 0.00 84 1018.0
20260904052541 75 0 0.0 2.0 0.00 0.00 0.00 84 1018.2
20260904052041 76 0 0.0 2.0 0.00 0.00 0.00 84 1018.3
20260904051557 76 0 0.0 2.0 0.00 0.00 0.00 83 1018.2
20260904051040 76 44 0.0 2.0 0.00 0.00 0.00 84 1018.2
20260904050540 76 0 0.0 2.0 0.00 0.00 0.00 84 1018.4
20260904050056 76 44 0.0 2.0 0.00 0.00 0.00 84 1018.4
20260904045540 76 44 0.0 2.0 0.00 0.00 0.00 84 1018.4
20260904045040 76 0 0.0 0.0 0.00 0.00 0.00 84 1018.5
20260904044553 76 0 0.0 0.0 0.00 0.00 0.00 84 1018.5
20260904044044 76 0 0.0 1.0 0.00 0.00 0.00 84 1018.5
20260904043540 76 0 0.0 1.0 0.00 0.00 0.00 84 1018.5
20260904043056 76 0 0.0 2.0 0.00 0.00 0.00 84 1018.5
20260904042542 76 0 0.0 2.0 0.00 0.00 0.00 84 1018.5
20260904042041 76 0 0.0 2.0 0.00 0.00 0.00 84 1018.5
20260904041559 76 44 0.0 2.0 0.00 0.00 0.00 84 1018.6
20260904041039 76 0 0.0 2.0 0.00 0.00 0.00 84 1018.6
20260904040540 76 44 0.0 2.0 0.00 0.00 0.00 84 1018.5
20260904040059 77 44 1.0 2.0 0.00 0.00 0.00 84 1018.6
20260904035538 77 0 0.0 2.0 0.00 0.00 0.00 84 1018.6
20260904035041 77 0 0.0 2.0 0.00 0.00 0.00 84 1018.6
20260904034552 77 0 0.0 2.0 0.00 0.00 0.00 84 1018.6
20260904034039 77 44 0.0 2.0 0.00 0.00 0.00 84 1018.5
20260904033537 77 57 0.0 2.0 0.00 0.00 0.00 84 1018.6
20260904033050 77 57 1.0 3.0 0.00 0.00 0.00 84 1018.6
20260904032539 78 5 1.0 3.0 0.00 0.00 0.00 84 1018.7
20260904032038 78 101 1.0 3.0 0.00 0.00 0.00 84 1018.8
20260904031558 78 131 0.0 2.0 0.00 0.00 0.00 84 1018.8
20260904031038 78 96 0.0 2.0 0.00 0.00 0.00 84 1018.7
20260904030538 78 0 0.0 0.0 0.00 0.00 0.00 84 1018.8
20260904030056 78 0 0.0 1.0 0.00 0.00 0.00 84 1018.7
20260904025538 78 0 0.0 1.0 0.00 0.00 0.00 84 1018.8
20260904025038 78 113 0.0 1.0 0.00 0.00 0.00 84 1018.7
20260904024549 78 113 0.0 1.0 0.00 0.00 0.00 84 1018.7
20260904024038 78 0 0.0 1.0 0.00 0.00 0.00 84 1018.7
20260904023537 78 0 0.0 2.0 0.00 0.00 0.00 84 1018.7
20260904023059 78 113 1.0 2.0 0.00 0.00 0.00 84 1018.6
20260904022538 78 113 1.0 2.0 0.00 0.00 0.00 84 1018.6
20260904022039 78 82 0.0 2.0 0.00 0.00 0.00 84 1018.5
20260904021559 78 82 0.0 2.0 0.00 0.00 0.00 84 1018.6
20260904021038 78 82 0.0 2.0 0.00 0.00 0.00 84 1018.5
20260904020542 78 82 0.0 2.0 0.00 0.00 0.00 84 1018.5
20260904020057 78 82 1.0 2.0 0.00 0.00 0.00 84 1018.5
20260904015538 79 82 1.0 2.0 0.00 0.00 0.00 84 1018.4
20260904015039 79 82 0.0 2.0 0.00 0.00 0.00 84 1018.3
20260904014557 79 82 0.0 2.0 0.00 0.00 0.00 84 1018.3
20260904014037 79 0 0.0 2.0 0.00 0.00 0.00 84 1018.2
20260904013537 79 82 0.0 1.0 0.00 0.00 0.00 84 1018.2
20260904013055 79 82 0.0 1.0 0.00 0.00 0.00 84 1018.3
20260904012541 80 82 0.0 1.0 0.00 0.00 0.00 84 1018.2
20260904012038 80 82 0.0 2.0 0.00 0.00 0.00 84 1018.0
20260904011559 80 0 0.0 2.0 0.00 0.00 0.00 84 1018.0
20260904011037 80 82 0.0 2.0 0.00 0.00 0.00 84 1017.9
20260904010538 80 82 0.0 2.0 0.00 0.00 0.00 84 1017.9
20260904010056 80 0 0.0 2.0 0.00 0.00 0.00 84 1017.9
20260904005538 80 0 0.0 2.0 0.00 0.00 0.00 84 1017.7
20260904005038 80 82 1.0 2.0 0.00 0.00 0.00 84 1017.5
20260904004553 80 17 0.0 2.0 0.00 0.00 0.00 84 1017.5
20260904004038 81 0 1.0 3.0 0.00 0.00 0.00 84 1017.4
20260904003537 81 17 1.0 3.0 0.00 0.00 0.00 83 1017.4
20260904003100 81 17 1.0 2.0 0.00 0.00 0.00 83 1017.3
20260904002538 81 0 0.0 2.0 0.00 0.00 0.00 82 1017.3
20260904002038 81 0 0.0 2.0 0.00 0.00 0.00 83 1017.2
20260904001605 81 9 0.0 2.0 0.00 0.00 0.00 83 1017.0
20260904001038 82 9 0.0 2.0 0.00 0.00 0.00 83 1017.0
20260904000538 81 0 0.0 2.0 0.00 0.00 0.00 83 1017.1
20260904000055 81 9 1.0 3.0 0.00 0.00 0.00 83 1017.0
20260903235539 82 9 1.0 4.0 0.00 0.00 0.00 82 1017.1
20260903235038 82 9 2.0 4.0 0.00 0.00 0.00 82 1017.0
20260903234556 82 9 2.0 4.0 0.00 0.00 0.00 82 1017.0
20260903234040 82 20 2.0 4.0 0.00 0.00 0.00 82 1016.8
20260903233537 83 14 2.0 4.0 0.00 0.00 0.00 81 1016.8
20260903233052 83 19 2.0 4.0 0.00 0.00 0.00 80 1016.9
20260903232540 83 13 2.0 4.0 0.00 0.00 0.00 81 1016.8
20260903232038 84 12 2.0 4.0 0.00 0.00 0.00 80 1016.7
20260903231557 84 22 3.0 4.0 0.00 0.00 0.00 79 1016.7
20260903231038 84 22 2.0 3.0 0.00 0.00 0.00 78 1016.7
20260903230542 85 22 2.0 3.0 0.00 0.00 0.00 78 1016.7
20260903230057 85 22 2.0 4.0 0.00 0.00 0.00 78 1016.7
20260903225540 85 22 2.0 4.0 0.00 0.00 0.00 77 1016.7
20260903225038 85 22 2.0 3.0 0.00 0.00 0.00 76 1016.7
20260903224551 86 22 1.0 3.0 0.00 0.00 0.00 75 1016.7
20260903224038 86 28 1.0 3.0 0.00 0.00 0.00 74 1016.8
20260903223541 86 28 1.0 3.0 0.00 0.00 0.00 75 1016.9
20260903223103 86 28 2.0 3.0 0.00 0.00 0.00 74 1016.9
20260903222539 87 28 1.0 3.0 0.00 0.00 0.00 71 1016.9
20260903222041 87 28 1.0 3.0 0.00 0.00 0.00 72 1017.0
20260903221556 87 28 2.0 3.0 0.00 0.00 0.00 71 1016.9
20260903221038 88 5 2.0 3.0 0.00 0.00 0.00 69 1016.8
20260903220541 89 5 1.0 3.0 0.00 0.00 0.00 69 1016.9
20260903220104 89 0 1.0 3.0 0.00 0.00 0.00 67 1016.9
20260903215538 89 5 1.0 4.0 0.00 0.00 0.00 65 1016.9
20260903215042 89 251 2.0 4.0 0.00 0.00 0.00 60 1016.8
20260903214553 89 246 2.0 4.0 0.00 0.00 0.00 61 1016.8
20260903214040 89 242 3.0 4.0 0.00 0.00 0.00 61 1016.7
20260903213540 89 247 3.0 4.0 0.00 0.00 0.00 61 1016.9
20260903213103 89 246 2.0 4.0 0.00 0.00 0.00 60 1016.8
20260903212540 89 234 1.0 4.0 0.00 0.00 0.00 62 1016.9
20260903212041 89 0 1.0 4.0 0.00 0.00 0.00 62 1016.9
20260903211557 88 249 3.0 5.0 0.00 0.00 0.00 62 1016.9
20260903211040 89 253 3.0 5.0 0.00 0.00 0.00 62 1016.9
20260903210543 89 260 2.0 4.0 0.00 0.00 0.00 61 1016.9
20260903210100 88 0 0.0 4.0 0.00 0.00 0.00 63 1017.1
20260903205544 88 331 2.0 4.0 0.00 0.00 0.00 64 1017.1
20260903205040 87 5 2.0 4.0 0.00 0.00 0.00 65 1017.3
20260903204552 87 13 2.0 5.0 0.00 0.00 0.00 66 1017.2
20260903204040 87 89 3.0 5.0 0.00 0.00 0.00 68 1017.4
20260903203539 87 53 2.0 5.0 0.00 0.00 0.00 68 1017.5
20260903203050 86 29 3.0 5.0 0.00 0.00 0.00 69 1017.6
20260903202540 86 5 3.0 4.0 0.00 0.00 0.00 68 1017.5
20260903202042 85 0 2.0 4.0 0.00 0.00 0.00 69 1017.7
20260903201556 85 43 0.0 2.0 0.00 0.00 0.00 70 1017.6
20260903201044 85 0 0.0 2.0 0.00 0.00 0.00 70 1017.7
20260903200540 85 0 0.0 2.0 0.00 0.00 0.00 71 1017.8
20260903200109 84 315 0.0 4.0 0.00 0.00 0.00 71 1017.8
20260903195540 84 350 1.0 4.0 0.00 0.00 0.00 71 1017.8
20260903195041 85 355 1.0 3.0 0.00 0.00 0.00 72 1017.9
20260903194559 85 0 1.0 3.0 0.00 0.00 0.00 72 1017.9
20260903194041 85 16 1.0 5.0 0.00 0.00 0.00 72 1017.9
20260903193540 86 0 1.0 5.0 0.00 0.00 0.00 71 1018.0
20260903193105 86 284 2.0 5.0 0.00 0.00 0.00 70 1018.1
20260903192540 87 110 2.0 4.0 0.00 0.00 0.00 71 1018.2
20260903192039 87 343 2.0 4.0 0.00 0.00 0.00 69 1018.3
20260903191549 88 360 1.0 3.0 0.00 0.00 0.00 68 1018.3
20260903191040 87 0 0.0 3.0 0.00 0.00 0.00 70 1018.3
20260903190541 88 17 0.0 3.0 0.00 0.00 0.00 70 1018.3
20260903190058 88 46 1.0 3.0 0.00 0.00 0.00 70 1018.3
20260903185541 89 355 0.0 2.0 0.00 0.00 0.00 67 1018.2
20260903185040 89 0 0.0 2.0 0.00 0.00 0.00 67 1018.2
20260903184557 89 46 1.0 2.0 0.00 0.00 0.00 64 1018.2
20260903184041 89 34 1.0 2.0 0.00 0.00 0.00 61 1018.2
20260903183538 89 34 0.0 3.0 0.00 0.00 0.00 61 1018.3
20260903183054 89 129 0.0 3.0 0.00 0.00 0.00 61 1018.4
20260903182539 89 207 2.0 3.0 0.00 0.00 0.00 59 1018.4
20260903182043 89 253 0.0 2.0 0.00 0.00 0.00 61 1018.4
20260903181604 88 355 1.0 4.0 0.00 0.00 0.00 60 1018.5
20260903181038 88 37 0.0 4.0 0.00 0.00 0.00 60 1018.6
20260903180538 88 243 1.0 4.0 0.00 0.00 0.00 61 1018.5
20260903180058 88 336 1.0 4.0 0.00 0.00 0.00 63 1018.4
20260903175542 88 0 1.0 5.0 0.00 0.00 0.00 62 1018.6
20260903175038 88 76 2.0 6.0 0.00 0.00 0.00 62 1018.6
20260903174558 88 270 2.0 6.0 0.00 0.00 0.00 60 1018.6
20260903174043 88 303 1.0 3.0 0.00 0.00 0.00 61 1018.7
20260903173538 87 47 0.0 2.0 0.00 0.00 0.00 65 1018.8
20260903173055 87 266 1.0 2.0 0.00 0.00 0.00 65 1018.8
20260903172538 87 0 1.0 3.0 0.00 0.00 0.00 67 1018.9
20260903172040 86 19 0.0 3.0 0.00 0.00 0.00 67 1018.9
20260903171557 86 254 1.0 4.0 0.00 0.00 0.00 68 1019.1
20260903171042 86 244 1.0 4.0 0.00 0.00 0.00 68 1019.0
20260903170542 86 242 1.0 4.0 0.00 0.00 0.00 68 1019.1
20260903170057 86 206 1.0 4.0 0.00 0.00 0.00 70 1019.2
20260903165542 86 237 2.0 4.0 0.00 0.00 0.00 70 1019.3
20260903165038 86 259 2.0 5.0 0.00 0.00 0.00 70 1019.2
20260903164557 85 229 3.0 5.0 0.00 0.00 0.00 71 1019.4
20260903164038 85 253 3.0 6.0 0.00 0.00 0.00 70 1019.4
20260903163538 85 239 3.0 6.0 0.00 0.00 0.00 71 1019.4
20260903163055 84 246 4.0 7.0 0.00 0.00 0.00 71 1019.4
20260903162543 84 235 4.0 7.0 0.00 0.00 0.00 71 1019.5
20260903162038 84 253 4.0 7.0 0.00 0.00 0.00 71 1019.6
20260903161600 84 236 4.0 5.0 0.00 0.00 0.00 72 1019.7
20260903161038 84 229 2.0 4.0 0.00 0.00 0.00 73 1019.7
20260903160538 83 248 3.0 5.0 0.00 0.00 0.00 72 1019.7
20260903160058 83 254 3.0 5.0 0.00 0.00 0.00 72 1019.8
20260903155538 83 240 2.0 4.0 0.00 0.00 0.00 74 1019.8
20260903155038 83 247 2.0 4.0 0.00 0.00 0.00 76 1019.8
20260903154557 82 230 3.0 4.0 0.00 0.00 0.00 77 1019.8
20260903154039 82 236 3.0 4.0 0.00 0.00 0.00 77 1019.8
20260903153538 81 244 2.0 5.0 0.00 0.00 0.00 77 1019.8
20260903153054 81 246 2.0 5.0 0.00 0.00 0.00 77 1019.8
20260903152541 81 254 3.0 5.0 0.00 0.00 0.00 77 1019.8
20260903152041 81 254 3.0 5.0 0.00 0.00 0.00 78 1019.9
20260903151611 80 236 2.0 4.0 0.00 0.00 0.00 78 1019.8
20260903151040 80 245 2.0 4.0 0.00 0.00 0.00 78 1019.8
20260903150540 80 253 1.0 3.0 0.00 0.00 0.00 78 1019.9
20260903150105 80 253 1.0 3.0 0.00 0.00 0.00 79 1019.9
20260903145539 79 250 1.0 4.0 0.00 0.00 0.00 80 1019.9
20260903145040 79 242 2.0 4.0 0.00 0.00 0.00 80 1019.8
20260903144557 79 253 1.0 3.0 0.00 0.00 0.00 80 1019.7
20260903144045 78 240 1.0 3.0 0.00 0.00 0.00 81 1019.7
20260903143540 78 250 1.0 3.0 0.00 0.00 0.00 82 1019.8
20260903143103 78 237 1.0 3.0 0.00 0.00 0.00 82 1019.8
20260903142540 78 237 0.0 3.0 0.00 0.00 0.00 82 1019.8
20260903142041 78 0 1.0 3.0 0.00 0.00 0.00 82 1019.8
20260903141553 78 0 0.0 1.0 0.00 0.00 0.00 83 1019.9
20260903141040 77 240 0.0 2.0 0.00 0.00 0.00 83 1019.7
20260903140540 77 0 1.0 2.0 0.00 0.00 0.00 83 1019.8
20260903135540 77 0 0.0 2.0 0.00 0.00 0.00 84 1019.7
20260903135040 77 14 0.0 2.0 0.00 0.00 0.00 83 1019.8
20260903134606 77 14 1.0 3.0 0.00 0.00 0.00 83 1019.9
20260903134040 77 67 0.0 3.0 0.00 0.00 0.00 84 1019.9
20260903133540 76 47 0.0 2.0 0.00 0.00 0.00 84 1020.0
20260903133057 76 0 0.0 1.0 0.00 0.00 0.00 84 1020.0
20260903132540 75 0 0.0 2.0 0.00 0.00 0.00 85 1020.0
20260903132040 75 0 0.0 2.0 0.00 0.00 0.00 84 1020.1
20260903131555 74 63 1.0 3.0 0.00 0.00 0.00 84 1020.1
20260903131039 74 0 0.0 3.0 0.00 0.00 0.00 84 1020.2
20260903130539 73 84 1.0 4.0 0.00 0.00 0.00 84 1020.2
20260903130052 73 88 1.0 4.0 0.00 0.00 0.00 84 1020.2
20260903125541 73 0 0.0 3.0 0.00 0.00 0.00 83 1020.2
20260903125042 73 0 0.0 3.0 0.00 0.00 0.00 83 1020.3
20260903124557 72 64 1.0 3.0 0.00 0.00 0.00 83 1020.2
20260903124040 72 0 1.0 3.0 0.00 0.00 0.00 83 1020.3
20260903123540 72 42 1.0 3.0 0.00 0.00 0.00 83 1020.3
20260903123058 71 42 1.0 3.0 0.00 0.00 0.00 83 1020.2
20260903122540 71 42 1.0 2.0 0.00 0.00 0.00 83 1020.2
20260903122040 71 0 1.0 2.0 0.00 0.00 0.00 83 1020.3
20260903121550 71 42 1.0 2.0 0.00 0.00 0.00 83 1020.2
20260903121040 71 42 0.0 2.0 0.00 0.00 0.00 83 1020.1
20260903120540 71 42 0.0 2.0 0.00 0.00 0.00 83 1020.1
20260903120056 71 42 0.0 3.0 0.00 0.00 0.00 83 1020.1
20260903115540 71 0 1.0 3.0 0.00 0.00 0.00 83 1020.1
20260903115040 71 57 0.0 3.0 0.00 0.00 0.00 83 1019.9
20260903114557 71 0 0.0 3.0 0.00 0.00 0.00 83 1019.9
20260903114041 71 76 1.0 2.0 0.00 0.00 0.00 83 1019.9
20260903113541 70 0 0.0 1.0 0.00 0.00 0.00 83 1019.8
20260903113052 70 0 0.0 2.0 0.00 0.00 0.00 83 1019.8
20260903112543 70 0 0.0 2.0 0.00 0.00 0.00 83 1019.6
20260903112039 70 88 0.0 2.0 0.00 0.00 0.00 83 1019.5
20260903111550 70 0 0.0 2.0 0.00 0.00 0.00 83 1019.5
20260903111042 70 88 1.0 2.0 0.00 0.00 0.00 83 1019.4
20260903110540 70 88 0.0 3.0 0.00 0.00 0.00 83 1019.4
20260903110058 70 88 1.0 3.0 0.00 0.00 0.00 83 1019.3
20260903105540 71 47 1.0 3.0 0.00 0.00 0.00 83 1019.3
20260903105040 71 47 1.0 3.0 0.00 0.00 0.00 83 1019.3
20260903104605 71 66 1.0 3.0 0.00 0.00 0.00 83 1019.1
20260903104040 71 46 1.0 3.0 0.00 0.00 0.00 83 1019.1
20260903103543 71 40 0.0 3.0 0.00 0.00 0.00 83 1019.1
20260903103052 71 0 1.0 3.0 0.00 0.00 0.00 83 1019.1
20260903102539 71 95 0.0 2.0 0.00 0.00 0.00 83 1019.1
20260903102039 71 46 1.0 2.0 0.00 0.00 0.00 83 1018.9
20260903101549 71 46 0.0 2.0 0.00 0.00 0.00 83 1018.8
20260903101040 71 46 0.0 2.0 0.00 0.00 0.00 83 1018.8
20260903100540 71 0 0.0 2.0 0.00 0.00 0.00 83 1018.8
20260903100059 72 0 0.0 2.0 0.00 0.00 0.00 83 1018.8
20260903095540 72 46 1.0 2.0 0.00 0.00 0.00 83 1018.8
20260903095040 72 46 0.0 2.0 0.00 0.00 0.00 83 1018.7
20260903094607 72 46 0.0 2.0 0.00 0.00 0.00 83 1018.6
20260903094040 72 46 1.0 2.0 0.00 0.00 0.00 83 1018.6
20260903093541 72 46 1.0 3.0 0.00 0.00 0.00 83 1018.7
20260903093057 72 0 0.0 3.0 0.00 0.00 0.00 83 1018.6
20260903092541 72 46 1.0 3.0 0.00 0.00 0.00 83 1018.6
20260903092040 72 46 0.0 2.0 0.00 0.00 0.00 83 1018.7
20260903091606 72 0 0.0 0.0 0.00 0.00 0.00 83 1018.5
20260903091039 72 0 0.0 1.0 0.00 0.00 0.00 84 1018.7
20260903090540 72 0 0.0 1.0 0.00 0.00 0.00 83 1018.7
20260903085540 72 0 0.0 2.0 0.00 0.00 0.00 84 1018.8
20260903085040 72 46 0.0 2.0 0.00 0.00 0.00 84 1018.8
20260903084558 72 0 0.0 2.0 0.00 0.00 0.00 84 1018.9
20260903084040 72 0 0.0 1.0 0.00 0.00 0.00 84 1018.9
20260903083541 72 0 0.0 1.0 0.00 0.00 0.00 84 1018.9
20260903083057 72 0 0.0 2.0 0.00 0.00 0.00 84 1018.9
20260903082541 72 46 0.0 2.0 0.00 0.00 0.00 84 1018.9
20260903082040 72 46 0.0 2.0 0.00 0.00 0.00 84 1018.9
20260903081559 72 0 0.0 2.0 0.00 0.00 0.00 84 1018.9
20260903081040 72 46 1.0 2.0 0.00 0.00 0.00 84 1018.9
20260903080540 72 46 0.0 1.0 0.00 0.00 0.00 84 1018.9
20260903080049 72 46 0.0 1.0 0.00 0.00 0.00 84 1018.9
20260903075542 73 0 0.0 2.0 0.00 0.00 0.00 84 1018.8
20260903075039 73 0 0.0 2.0 0.00 0.00 0.00 84 1018.8
20260903074557 73 46 0.0 2.0 0.00 0.00 0.00 84 1018.8
20260903074040 73 46 0.0 2.0 0.00 0.00 0.00 84 1018.8
20260903073540 73 46 0.0 2.0 0.00 0.00 0.00 84 1018.8
20260903073102 73 0 0.0 2.0 0.00 0.00 0.00 84 1018.8
20260903072542 73 0 0.0 2.0 0.00 0.00 0.00 84 1018.7
20260903072040 73 46 0.0 2.0 0.00 0.00 0.00 84 1018.7